Harlan, KY

9:50 PM EST on December 15, 2019 (GMT -0500)
Harlan

Weather History for KI35 - November, 2019

Change the Weather History Date:

Monday, November 11, 2019

  Actual Average (KLOZ) Record (KLOZ)
Temperature  
Mean Temperature 48 °F -  
Max Temperature 61 °F 56 °F 73 °F (1989)
Min Temperature 34 °F 35 °F 16 °F (1957)
Degree Days  
Heating Degree Days 18    
Moisture  
Dew Point 40 °F    
Average Humidity 77    
Maximum Humidity 100    
Minimum Humidity 44    
Precipitation  
Precipitation 0.00 in - - ()
Sea Level Pressure  
Sea Level Pressure 30.05 in    
Wind  
Wind Speed 1 mph ()    
Max Wind Speed 14 mph    
Max Gust Speed 30 mph    
Visibility 8.5 miles    
Events      
Averages and records for this station are not official NWS values.
T = Trace of Precipitation, MM = Missing Value Source: Averaged Metar Reports

Daily Weather History Graph

Daily Weather History Graph

Search for Another Location

Airport or City:

Astronomy

Nov. 11, 2019 Rise Set
Actual Time 7:07 AM EST 5:27 PM EST
Civil Twilight 6:39 AM EST 5:54 PM EST
Nautical Twilight 6:08 AM EST 6:25 PM EST
Astronomical Twilight 5:38 AM EST 6:56 PM EST
Moon 5:19 PM EST (11/11) 6:00 AM EST (11/11)
Length of Visible Light 11h 14m
Length of Day
10h 19m
Waxing Gibbous, 99% of the Moon is Illuminated
Nov 11
Waxing Gibbous
Nov 12
Full
Nov 19
Last Quarter
Nov 26
New
Dec 4
First Quarter

Hourly Weather History & Observations

Time (EST) Temp. Windchill Dew Point Humidity Pressure Visibility Wind Dir Wind Speed Gust Speed Precip Events Conditions
12:15 AM 41.9 °F - 37.0 °F 83% 30.11 in 10.0 mi Calm Calm - N/A   Clear
12:35 AM 40.5 °F - 36.9 °F 87% 30.11 in 10.0 mi Calm Calm - N/A   Clear
12:55 AM 40.3 °F - 36.9 °F 88% 30.11 in 10.0 mi Calm Calm - N/A   Clear
1:55 AM 38.3 °F - 36.5 °F 93% 30.10 in 10.0 mi Calm Calm - N/A   Clear
2:15 AM 37.9 °F - 36.0 °F 93% 30.11 in 10.0 mi Calm Calm - N/A   Clear
2:35 AM 37.6 °F - 36.5 °F 96% 30.11 in 10.0 mi Calm Calm - N/A   Clear
2:55 AM 37.4 °F - 36.5 °F 97% 30.11 in 10.0 mi Calm Calm - N/A   Clear
3:35 AM 36.5 °F - 35.8 °F 97% 30.11 in 10.0 mi Calm Calm - N/A   Clear
3:55 AM 35.8 °F - 35.2 °F 98% 30.11 in 10.0 mi Calm Calm - N/A   Clear
4:15 AM 36.1 °F - 35.4 °F 97% 30.11 in 10.0 mi Calm Calm - N/A   Clear
4:35 AM 35.2 °F - 34.9 °F 99% 30.11 in 7.0 mi Calm Calm - N/A   Clear
4:55 AM 35.8 °F - 35.6 °F 99% 30.11 in 10.0 mi Calm Calm - N/A   Clear
5:15 AM 35.8 °F - 35.2 °F 98% 30.13 in 10.0 mi Calm Calm - N/A   Clear
5:35 AM 35.1 °F - 34.7 °F 99% 30.13 in 10.0 mi Calm Calm - N/A   Clear
5:55 AM 34.7 °F - 34.3 °F 99% 30.13 in 7.0 mi Calm Calm - N/A   Clear
6:15 AM 34.7 °F - 34.3 °F 99% 30.13 in 7.0 mi Calm Calm - N/A   Clear
6:35 AM 34.3 °F - 34.2 °F 99% 30.13 in 7.0 mi Calm Calm - N/A   Clear
6:55 AM 34.2 °F - 34.0 °F 99% 30.13 in 5.0 mi Calm Calm - N/A   Scattered Clouds
7:15 AM 34.2 °F - 34.0 °F 99% 30.13 in 3.0 mi Calm Calm - N/A   Scattered Clouds
7:35 AM 34.7 °F - 34.5 °F 99% 30.12 in 3.0 mi Calm Calm - N/A   Mostly Cloudy
7:55 AM 34.7 °F - 34.3 °F 99% 30.13 in 3.0 mi Calm Calm - N/A   Scattered Clouds
8:15 AM 35.8 °F - 35.8 °F 100% 30.13 in 5.0 mi Calm Calm - N/A   Clear
8:35 AM 36.3 °F - 35.8 °F 98% 30.13 in 7.0 mi Calm Calm - N/A   Clear
8:55 AM 37.8 °F - 36.9 °F 97% 30.14 in 10.0 mi Calm Calm - N/A   Clear
9:15 AM 40.8 °F - 37.6 °F 88% 30.14 in 10.0 mi Calm Calm - N/A   Clear
9:35 AM 43.3 °F - 38.5 °F 83% 30.13 in 10.0 mi Calm Calm - N/A   Clear
9:55 AM 45.7 °F - 38.8 °F 77% 30.13 in 10.0 mi Calm Calm - N/A   Clear
10:35 AM 51.3 °F - 40.3 °F 66% 30.12 in 10.0 mi Calm Calm - N/A   Clear
10:55 AM 54.3 °F - 40.3 °F 59% 30.09 in 10.0 mi Calm Calm - N/A   Clear
11:15 AM 55.4 °F - 40.1 °F 56% 30.09 in 10.0 mi Calm Calm - N/A   Clear
11:35 AM 56.8 °F - 40.3 °F 54% 30.07 in 10.0 mi Calm Calm - N/A   Clear
11:55 AM 59.2 °F - 40.6 °F 50% 30.06 in 10.0 mi Calm Calm - N/A   Clear
12:15 PM 60.1 °F - 40.1 °F 48% 30.05 in 10.0 mi SSW 5.8 mph - N/A   Clear
12:35 PM 61.2 °F - 39.9 °F 46% 30.03 in 10.0 mi SW 8.1 mph - N/A   Clear
1:15 PM 61.9 °F - 40.1 °F 45% 30.01 in 10.0 mi SSW 3.5 mph - N/A   Clear
1:35 PM 61.7 °F - 39.7 °F 44% 30.00 in 10.0 mi South 6.9 mph - N/A   Clear
1:55 PM 61.5 °F - 40.1 °F 45% 30.01 in 10.0 mi WSW 8.1 mph - N/A   Clear
2:15 PM 61.0 °F - 39.7 °F 46% 30.00 in 10.0 mi SW 10.4 mph - N/A   Clear
2:35 PM 61.7 °F - 40.3 °F 45% 30.00 in 10.0 mi WSW 3.5 mph - N/A   Clear
2:55 PM 61.3 °F - 40.5 °F 46% 30.00 in 10.0 mi WSW 6.9 mph - N/A   Scattered Clouds
3:15 PM 60.6 °F - 40.6 °F 48% 29.98 in 10.0 mi SSW 3.5 mph - N/A   Scattered Clouds
3:35 PM 61.0 °F - 40.8 °F 47% 29.98 in 10.0 mi SE 3.5 mph - N/A   Clear
3:55 PM 60.8 °F - 40.8 °F 48% 29.98 in 10.0 mi SW 4.6 mph - N/A   Clear
4:15 PM 59.9 °F - 41.0 °F 50% 29.97 in 10.0 mi SSW 4.6 mph - N/A   Scattered Clouds
5:15 PM 58.3 °F - 41.0 °F 53% 29.97 in 10.0 mi SSW 4.6 mph - N/A   Mostly Cloudy
5:35 PM 58.1 °F - 41.0 °F 53% 29.97 in 10.0 mi WSW 3.5 mph - N/A   Scattered Clouds
6:15 PM 56.8 °F - 42.3 °F 58% 29.97 in 10.0 mi Calm Calm - N/A   Overcast
6:35 PM 56.7 °F - 42.4 °F 59% 29.98 in 10.0 mi Calm Calm - N/A   Overcast
6:55 PM 56.5 °F - 42.8 °F 60% 29.98 in 10.0 mi Calm Calm - N/A   Overcast
7:15 PM 56.5 °F - 42.8 °F 60% 29.98 in 10.0 mi Calm Calm - N/A   Overcast
7:35 PM 56.5 °F - 43.0 °F 61% 29.97 in 10.0 mi WSW 3.5 mph - N/A   Overcast
8:15 PM 55.6 °F - 44.8 °F 67% 29.97 in 10.0 mi Calm Calm - N/A   Overcast
8:35 PM 54.9 °F - 45.0 °F 69% 29.96 in 10.0 mi SW 11.5 mph 16.1 mph N/A   Overcast
8:55 PM 53.6 °F - 46.2 °F 76% 29.97 in 7.0 mi West 4.6 mph - N/A   Overcast
9:15 PM 52.0 °F - 47.5 °F 85% 29.97 in 7.0 mi West 8.1 mph - N/A   Overcast
9:35 PM 51.3 °F - 48.2 °F 89% 29.97 in 5.0 mi WNW 6.9 mph - N/A   Overcast
9:55 PM 50.9 °F - 48.2 °F 90% 29.97 in 5.0 mi West 5.8 mph - N/A   Overcast
10:15 PM 50.4 °F - 48.6 °F 94% 29.97 in 5.0 mi West 4.6 mph - N/A   Overcast
10:35 PM 50.0 °F - 48.7 °F 95% 29.97 in 5.0 mi Calm Calm - N/A   Overcast
10:55 PM 49.6 °F - 49.1 °F 98% 29.96 in 5.0 mi Calm Calm - N/A   Overcast
11:15 PM 49.3 °F - 47.1 °F 92% 29.97 in 3.0 mi NNW 13.8 mph 21.9 mph N/A   Overcast
11:35 PM 43.9 °F 37.5 °F 40.5 °F 88% 30.01 in 4.0 mi NW 12.7 mph 29.9 mph N/A   Overcast